GW4861 Weather Reports


time (UTC)temp
C
wind
direction
speed
KPH
gust
KPH
rain 1hr
cm
rain 24hr
cm
rain mn
cm
humidity
%
barometer
mb
20260504223020 21 249 14.5 22.5 0.00 0.00 0.00 30 1005.2
20260504221527 21 236 12.9 24.1 0.00 0.00 0.00 31 1005.1
20260504220041 21 275 20.9 33.8 0.00 0.00 0.00 30 1005.2
20260504214513 21 228 16.1 33.8 0.00 0.00 0.00 30 1005.4
20260504213018 21 233 16.1 27.4 0.00 0.00 0.00 29 1005.3
20260504211530 21 226 14.5 32.2 0.00 0.00 0.00 30 1005.3
20260504210024 21 273 20.9 33.8 0.00 0.00 0.00 29 1005.2
20260504204536 21 264 22.5 37.0 0.00 0.00 0.00 29 1005.2
20260504203019 22 249 14.5 30.6 0.00 0.00 0.00 28 1005.2
20260504201504 21 323 9.7 24.1 0.00 0.00 0.00 28 1005.2
20260504200007 21 239 17.7 33.8 0.00 0.00 0.00 28 1005.2
20260504194512 21 276 22.5 38.6 0.00 0.00 0.00 27 1005.4
20260504193020 21 250 17.7 33.8 0.00 0.00 0.00 27 1005.3
20260504191522 21 245 20.9 37.0 0.00 0.00 0.00 28 1005.4
20260504190011 21 250 20.9 37.0 0.00 0.00 0.00 27 1005.5
20260504184510 21 258 20.9 40.2 0.00 0.00 0.00 27 1005.6
20260504183013 20 255 19.3 43.5 0.00 0.00 0.00 28 1005.7
20260504181521 20 266 19.3 40.2 0.00 0.00 0.00 28 1005.9
20260504180022 20 259 22.5 40.2 0.00 0.00 0.00 27 1005.8
20260504174507 20 263 24.1 43.5 0.00 0.00 0.00 28 1006.0
20260504173012 19 287 22.5 40.2 0.00 0.00 0.00 29 1006.4
20260504171516 19 305 14.5 43.5 0.00 0.00 0.00 30 1006.2
20260504081519 6 226 0.0 3.2 0.00 0.13 0.00 60 1009.2
20260504050018 3 245 0.0 0.0 0.00 0.13 0.00 70 1009.2
20260504044529 3 245 0.0 0.0 0.00 0.13 0.00 70 1009.3
20260504043034 3 245 0.0 0.0 0.00 0.13 0.00 69 1009.3
20260504041527 3 245 0.0 0.0 0.00 0.13 0.00 68 1009.3
20260504040026 3 245 1.6 3.2 0.00 0.13 0.00 67 1009.2
20260504034520 4 245 1.6 3.2 0.00 0.13 0.13 66 1009.1
20260504033022 4 250 3.2 4.8 0.00 0.13 0.13 64 1009.0
20260504031526 5 242 0.0 3.2 0.00 0.13 0.13 63 1009.0
20260504030026 5 242 1.6 3.2 0.00 0.13 0.13 63 1009.0
20260504024528 5 240 3.2 4.8 0.00 0.13 0.13 63 1009.0
20260504023022 5 258 0.0 3.2 0.00 0.13 0.13 61 1008.9
20260504021505 5 249 1.6 4.8 0.00 0.13 0.13 61 1008.9
20260504020009 6 250 1.6 3.2 0.00 0.13 0.13 58 1008.8
20260504014514 6 250 1.6 3.2 0.00 0.13 0.13 57 1008.6
20260504013020 7 250 1.6 4.8 0.00 0.13 0.13 54 1008.5
20260504011522 7 250 3.2 4.8 0.00 0.13 0.13 51 1008.4
20260504010007 8 278 0.0 0.0 0.00 0.13 0.13 49 1008.3
20260504004517 8 278 0.0 0.0 0.00 0.13 0.13 46 1008.1
20260504003014 9 278 1.6 3.2 0.00 0.13 0.13 44 1007.9
20260504001524 9 302 1.6 4.8 0.00 0.13 0.13 42 1007.8
20260504000024 10 285 3.2 11.3 0.00 0.13 0.13 41 1007.6
20260503234515 10 323 4.8 11.3 0.00 0.13 0.13 39 1007.5
20260503233012 10 281 6.4 17.7 0.00 0.13 0.13 39 1007.4
20260503231520 10 292 8.0 22.5 0.00 0.13 0.13 38 1007.2
20260503230022 11 25 6.4 22.5 0.00 0.13 0.13 37 1007.1
20260503224527 11 279 14.5 22.5 0.00 0.13 0.13 37 1007.0